Girona, Spain

2:41 PM CET on December 16, 2017 (GMT +0100)
Girona

Weather History for LEGE - August, 2013

Change the Weather History Date:

Friday, August 16, 2013

  Actual Average Record
Temperature  
Mean Temperature 74 °F -  
Max Temperature 86 °F 81 °F 91 °F (2003)
Min Temperature 63 °F 59 °F 53 °F (2008)
Cooling Degree Days 10    
Growing Degree Days 24 (Base 50)    
Moisture  
Dew Point 67 °F    
Average Humidity 81    
Maximum Humidity 100    
Minimum Humidity 52    
Precipitation  
Precipitation 0.00 in 0.07 in - ()
Sea Level Pressure  
Sea Level Pressure 30.06 in    
Wind  
Wind Speed 2 mph ()    
Max Wind Speed 13 mph    
Max Gust Speed -    
Visibility 6.2 miles    
Events      
Averages and records for this station are not official NWS values.
T = Trace of Precipitation, MM = Missing Value Source: Averaged Metar Reports

Daily Weather History Graph

Daily Weather History Graph

Search for Another Location

Airport or City:

Trip Planner

Search our weather history database for the weather conditions in past years. The results will help you decide how hot, cold, wet, or windy it might be!

Date:

Astronomy

Aug. 16, 2013 Rise Set
Actual Time 6:58 AM CEST 8:47 PM CEST
Civil Twilight 6:28 AM CEST 9:17 PM CEST
Nautical Twilight 5:51 AM CEST 9:53 PM CEST
Astronomical Twilight 5:12 AM CEST 10:32 PM CEST
Moon 4:52 PM CEST 1:44 AM CEST
Length of Visible Light 14h 49m
Length of Day
13h 49m
Waxing Gibbous, 72% of the Moon is Illuminated
Aug 16
Waxing Gibbous
Aug 21
Full
Aug 28
Last Quarter
Sep 5
New
Sep 12
First Quarter

Hourly Weather History & Observations

Time (CEST) Temp. Heat Index Dew Point Humidity Pressure Visibility Wind Dir Wind Speed Gust Speed Precip Events Conditions
12:00 AM 68.0 °F - 62.6 °F 83% 30.09 in 6.2 mi Calm Calm - N/A   Partly Cloudy
12:30 AM 68.0 °F - 62.6 °F 83% 30.09 in 6.2 mi Calm Calm - N/A   Partly Cloudy
1:00 AM 66.2 °F - 62.6 °F 88% 30.09 in 6.2 mi West 1.2 mph - N/A   Scattered Clouds
1:30 AM 66.2 °F - 62.6 °F 88% 30.09 in 6.2 mi Calm Calm - N/A   Partly Cloudy
2:00 AM 67 °F - 63 °F 83% 30.07 in 6 mi Calm Calm - -  
2:00 AM 66.2 °F - 62.6 °F 88% 30.09 in 6.2 mi Calm Calm - N/A   Partly Cloudy
2:30 AM 66.2 °F - 62.6 °F 88% 30.09 in 6.2 mi Calm Calm - N/A   Partly Cloudy
3:00 AM 64.4 °F - 62.6 °F 94% 30.06 in 6.2 mi Calm Calm - N/A   Partly Cloudy
3:30 AM 64.4 °F - 62.6 °F 94% 30.06 in 6.2 mi Calm Calm - N/A   Partly Cloudy
4:00 AM 64.4 °F - 62.6 °F 94% 30.06 in 6.2 mi Calm Calm - N/A   Partly Cloudy
4:30 AM 64.4 °F - 62.6 °F 94% 30.06 in 6.2 mi Calm Calm - N/A   Partly Cloudy
5:00 AM 64.4 °F - 60.8 °F 88% 30.06 in 6.2 mi Calm Calm - N/A   Scattered Clouds
5:30 AM 62.6 °F - 60.8 °F 94% 30.06 in 6.2 mi Variable 1.2 mph - N/A   Scattered Clouds
6:00 AM 64.4 °F - 60.8 °F 88% 30.06 in 6.2 mi West 1.2 mph - N/A   Partly Cloudy
6:30 AM 62.6 °F - 60.8 °F 94% 30.06 in 6.2 mi WSW 1.2 mph - N/A   Partly Cloudy
7:00 AM 64.4 °F - 60.8 °F 88% 30.06 in - Variable 1.2 mph - N/A   Clear
7:30 AM 62.6 °F - 62.6 °F 100% 30.06 in - Calm Calm - N/A   Clear
8:00 AM 66 °F - 64 °F 89% 30.06 in - NNE 2.3 mph - -  
8:00 AM 66.2 °F - 62.6 °F 88% 30.06 in - NNE 1.2 mph - N/A   Clear
8:30 AM 68.0 °F - 64.4 °F 88% 30.06 in - Variable 1.2 mph - N/A   Clear
9:00 AM 69.8 °F - 64.4 °F 83% 30.06 in 6.2 mi Variable 1.2 mph - N/A   Scattered Clouds
9:30 AM 71.6 °F - 66.2 °F 83% 30.06 in 6.2 mi NE 1.2 mph - N/A   Scattered Clouds
10:00 AM 73.4 °F - 66.2 °F 78% 30.06 in 6.2 mi Variable 2.3 mph - N/A   Scattered Clouds
10:30 AM 73.4 °F - 68.0 °F 83% 30.09 in 6.2 mi NNE 3.5 mph - N/A   Partly Cloudy
11:00 AM 77.0 °F - 68.0 °F 74% 30.06 in 6.2 mi NNE 1.2 mph - N/A   Scattered Clouds
11:30 AM 77.0 °F - 68.0 °F 74% 30.06 in 6.2 mi ENE 2.3 mph - N/A   Scattered Clouds
12:00 PM 80.6 °F 83.2 °F 68.0 °F 65% 30.06 in 6.2 mi East 1.2 mph - N/A   Scattered Clouds
12:30 PM 82.4 °F 85.4 °F 68.0 °F 62% 30.06 in 6.2 mi SSE 3.5 mph - N/A   Scattered Clouds
1:00 PM 82.4 °F 86.3 °F 69.8 °F 66% 30.06 in 6.2 mi South 4.6 mph - N/A   Scattered Clouds
1:30 PM 84.2 °F 87.3 °F 68.0 °F 58% 30.06 in 6.2 mi SSW 5.8 mph - N/A   Scattered Clouds
2:00 PM 86 °F - 71 °F 52% 30.02 in - South 11.5 mph - -  
2:00 PM 84.2 °F 88.4 °F 69.8 °F 62% 30.06 in 6.2 mi South 10.4 mph - N/A   Mostly Cloudy
2:30 PM 84.2 °F 89.6 °F 71.6 °F 66% 30.04 in 6.2 mi South 11.5 mph - N/A   Mostly Cloudy
3:00 PM 82.4 °F 87.2 °F 71.6 °F 70% 30.04 in 6.2 mi South 11.5 mph - N/A   Mostly Cloudy
3:30 PM 82.4 °F 87.2 °F 71.6 °F 70% 30.04 in 6.2 mi South 10.4 mph - N/A   Mostly Cloudy
4:00 PM 82.4 °F 86.3 °F 69.8 °F 66% 30.01 in 6.2 mi SSE 8.1 mph - N/A   Mostly Cloudy
4:30 PM 80.6 °F 83.9 °F 69.8 °F 70% 30.04 in 6.2 mi South 10.4 mph - N/A   Overcast
5:00 PM 78.8 °F - 69.8 °F 74% 30.04 in 6.2 mi South 11.5 mph - N/A   Mostly Cloudy
5:30 PM 78.8 °F - 69.8 °F 74% 30.04 in 6.2 mi South 12.7 mph - N/A   Mostly Cloudy
6:00 PM 77.0 °F - 69.8 °F 78% 30.04 in 6.2 mi SSW 9.2 mph - N/A   Scattered Clouds
6:30 PM 77.0 °F - 69.8 °F 78% 30.04 in 6.2 mi South 11.5 mph - N/A   Scattered Clouds
7:00 PM 77.0 °F - 69.8 °F 78% 30.04 in 6.2 mi South 9.2 mph - N/A   Mostly Cloudy
7:30 PM 77.0 °F - 69.8 °F 78% 30.04 in 6.2 mi South 8.1 mph - N/A   Mostly Cloudy
8:00 PM 77.0 °F - 69.8 °F 78% 30.01 in 6.2 mi SSE 6.9 mph - N/A   Partly Cloudy
8:30 PM 75.2 °F - 69.8 °F 83% 30.01 in 6.2 mi SE 5.8 mph - N/A   Partly Cloudy
9:00 PM 75.2 °F - 69.8 °F 83% 30.04 in 6.2 mi SSW 5.8 mph - N/A   Partly Cloudy
9:30 PM 75.2 °F - 69.8 °F 83% 30.04 in 6.2 mi SSW 4.6 mph - N/A   Partly Cloudy
10:00 PM 75.2 °F - 69.8 °F 83% 30.04 in 6.2 mi Variable 1.2 mph - N/A   Partly Cloudy
10:30 PM 73.4 °F - 69.8 °F 88% 30.06 in 6.2 mi SSE 3.5 mph - N/A   Partly Cloudy
11:00 PM 73.4 °F - 69.8 °F 88% 30.06 in 6.2 mi Calm Calm - N/A   Partly Cloudy
11:30 PM 73.4 °F - 69.8 °F 88% 30.06 in 6.2 mi Calm Calm - N/A   Partly Cloudy